User: anonymous   Login
Location: Unspecified
(0.0000°N, 0.0000°E)
Time: 06:08:42
(UTC+00:00)
Language:

Metsat - Orbit

View from above orbital plane
View from above orbital plane
View from above satellite
View from above satellite

Ground track
Ground track

The orbit data is extracted from the following two-line orbital elements,

1 26382U 00032A   17296.27896656 -.00000187 +00000-0 +00000-0 0  9997
2 26382 010.0940 039.1965 0006653 233.6104 132.3248 01.00072129063317
Epoch (UTC): 23 October 2017 06:41:42
Eccentricity: 0.0006653
inclination: 10.0940°
perigee height: 35814 km
apogee height: 35870 km
right ascension of ascending node: 39.1965°
argument of perigee: 233.6104°
revolutions per day: 1.00072129
mean anomaly at epoch: 132.3248°
orbit number at epoch: 6331

The dashed part of the orbit path shows where the satellite is in the earth's shadow,  

DLR